EHI
0 2 7 8 4 1 2 6 10 9 5 1 0 0 0 0 0 1 0 0 0 0 0 0 0 0 0 0 0 0 0 0 0 0 0 0 0 0 0 0 0 0 0
0 3 7 7 4 2 4 8 11 9 5 2 0 0 0 0 1 1 1 0 0 0 0 0 0 0 0 0 0 0 0 0 0 0 0 0 0 0 0 0 0 0 0
1 3 6 5 4 4 5 8 10 9 6 3 2 1 0 0 1 2 1 0 0 0 0 0 0 0 0 0 0 0 0 0 0 0 0 0 0 0 0 0 0 0 0
2 4 6 5 4 4 5 6 8 9 7 6 5 3 1 1 1 1 1 0 0 0 0 0 0 0 0 0 0 0 0 0 0 0 0 0 0 0 0 0 0 0 0
2 5 7 6 5 3 3 5 6 7 8 7 6 4 3 2 2 2 1 0 0 0 0 0 0 0 0 0 0 0 0 0 0 0 0 0 0 0 0 0 0 0 0
3 5 7 7 4 2 2 3 4 5 6 6 5 3 2 2 2 2 1 0 0 0 0 0 0 0 0 0 0 0 0 0 0 0 0 0 0 0 0 0 0 0 0
5 6 7 7 5 2 1 2 3 4 5 5 4 1 0 1 1 1 1 0 0 0 0 0 0 0 0 0 0 0 0 0 0 0 0 0 0 0 0 0 0 0 0
5 6 6 6 6 4 2 2 3 3 3 3 2 1 0 0 0 0 0 0 0 0 0 0 0 0 0 0 0 0 0 0 0 0 0 0 0 0 0 0 0 0 0
4 6 6 6 5 3 1 1 1 2 1 1 1 0 0 0 0 0 0 0 0 0 0 0 0 0 0 0 0 0 0 0 0 0 0 0 0 0 0 0 0 0 0
4 5 6 6 4 3 1 0 0 0 0 0 0 0 0 0 0 0 0 0 0 0 0 0 0 0 0 0 0 0 0 0 0 0 0 0 0 0 0 0 0 0 0
2 5 6 6 4 3 2 1 0 0 0 0 0 0 0 0 0 0 0 0 0 0 0 0 0 0 0 0 0 0 0 0 0 0 0 0 0 0 0 0 0 0 0
1 3 5 5 4 3 3 1 1 0 0 0 0 0 0 0 0 0 0 0 0 0 0 0 0 0 0 0 0 0 0 0 0 0 0 0 0 0 0 0 0 0 0
0 1 3 4 3 3 3 3 2 1 0 0 0 0 0 0 0 0 0 0 0 0 0 0 0 0 0 0 0 0 0 0 0 0 0 0 0 0 0 0 0 0 0
0 0 1 2 2 2 3 3 3 1 0 0 0 0 0 0 0 0 0 0 0 0 0 0 0 0 0 0 0 0 0 0 0 0 0 0 0 0 0 0 0 0 0
0 0 1 2 1 1 2 3 3 2 1 0 0 0 0 0 0 0 0 0 0 0 0 0 0 0 0 0 0 0 0 0 0 0 0 0 0 0 0 0 0 0 0
0 0 1 2 1 0 1 2 3 3 2 1 0 0 0 0 0 0 0 0 0 0 0 0 0 0 0 0 0 0 0 0 0 0 0 0 0 0 0 0 0 0 0
0 0 1 2 1 0 0 1 2 3 3 2 0 0 0 0 0 0 0 0 0 0 0 0 0 0 0 0 0 0 0 0 0 0 0 0 0 0 0 0 0 0 0
0 0 1 2 1 0 0 0 1 2 2 1 0 0 0 0 0 0 0 0 0 0 0 0 0 0 0 0 0 0 0 0 0 0 0 0 0 0 0 0 0 0 0
0 0 1 1 1 0 0 0 0 1 1 0 0 0 0 0 0 0 0 0 0 0 0 0 0 0 0 0 0 0 0 0 0 0 0 0 0 0 0 0 0 0 0
0 0 0 1 1 0 0 0 0 0 0 0 0 0 0 0 0 0 0 0 0 0 0 0 0 0 0 0 0 0 0 0 0 0 0 0 0 0 0 0 0 0 0
0 0 0 0 0 0 0 0 0 0 0 0 0 0 0 0 0 0 0 0 0 0 0 0 0 0 0 0 0 0 0 0 0 0 0 0 0 0 0 0 0 0 0
0 0 0 0 0 0 0 0 0 0 0 0 0 0 0 0 0 0 0 0 0 0 0 0 0 0 0 0 0 0 0 0 0 0 0 0 0 0 0 0 0 0 0
0 0 0 0 0 0 0 0 0 0 0 0 0 0 0 0 0 0 0 0 0 0 0 0 0 0 0 0 0 0 0 0 0 0 0 0 0 0 0 0 0 0 0
0 0 0 0 0 0 0 0 0 0 0 0 0 0 0 0 0 0 0 0 0 0 0 0 0 0 0 0 0 0 0 0 0 0 0 0 0 0 0 0 0 0 0
0 0 0 0 0 0 0 0 0 0 0 0 0 0 0 0 0 0 0 0 0 0 0 0 0 0 0 0 0 0 0 0 0 0 0 0 0 0 0 0 0 0 0
0 0 0 0 0 0 0 0 0 0 0 0 0 0 0 0 0 0 0 0 0 0 0 0 0 0 0 0 0 0 0 0 0 0 0 0 0 0 0 0 0 0 0
Wind_Speed
3 5 6 5 6 7 8 9 10 10 11 11 11 12 11 11 10 10 10 10 10 10 11 11 12 13 13 14 14 14 14 13 13 13 13 12 12 12 13 13 11 8 14
3 4 5 4 6 7 7 9 10 10 10 10 11 11 11 10 10 10 10 10 10 11 11 11 12 12 13 13 13 13 13 13 13 13 12 10 11 12 12 11 11 8 13
2 3 3 4 6 6 7 9 9 10 10 10 10 10 11 10 10 10 11 11 11 11 11 11 11 12 12 13 13 13 12 12 12 11 10 6 6 11 11 10 11 12 13
3 3 3 5 6 7 8 9 9 9 9 10 10 10 10 10 11 11 11 11 11 11 11 11 11 11 12 12 12 12 12 11 11 10 6 5 4 9 11 10 10 11 12
4 4 4 6 7 8 8 8 9 9 9 10 10 10 10 10 11 11 11 11 11 11 11 11 10 11 11 11 11 11 11 11 10 8 5 4 4 8 10 10 10 10 11
5 5 4 8 8 8 8 9 9 9 9 9 9 9 10 10 10 11 11 11 11 11 10 10 10 10 10 10 11 11 10 10 8 5 4 4 3 7 9 9 9 10 10
5 5 5 8 8 8 9 9 9 9 9 8 9 9 9 9 10 10 10 10 10 10 10 9 9 9 9 10 10 10 10 10 6 4 4 3 3 7 8 8 9 9 10
4 5 5 7 9 9 9 9 9 9 9 9 9 9 9 9 10 10 9 9 9 9 9 9 9 8 8 9 9 9 10 9 6 4 3 3 5 6 7 8 8 8 9
5 5 5 5 6 8 9 9 10 10 10 10 10 10 9 9 9 9 9 9 9 9 8 8 8 8 8 8 8 9 9 9 5 3 3 2 5 6 6 7 7 8 7
5 5 5 5 5 4 4 8 9 10 10 10 11 11 10 9 8 8 8 8 8 8 9 8 8 8 8 8 8 9 8 6 4 3 2 2 5 5 5 5 6 6 7
4 4 4 4 5 5 4 6 7 8 9 9 8 10 8 4 4 5 7 8 8 8 9 9 9 9 8 8 8 8 6 3 3 2 2 4 5 5 5 5 4 5 5
2 2 3 4 4 4 4 3 3 3 4 4 4 5 4 4 4 5 7 8 8 8 8 8 9 8 6 3 5 6 3 3 2 2 2 4 4 4 4 4 4 3 4
1 1 2 2 3 3 3 2 2 2 2 3 4 4 3 3 3 3 2 3 4 5 4 5 5 4 3 3 2 2 2 2 2 2 2 4 4 3 4 4 4 4 3
0 1 1 2 2 2 2 2 2 1 2 2 3 3 3 2 3 3 2 2 3 2 3 3 2 3 3 2 2 2 2 1 1 1 2 4 4 3 3 3 3 3 3
1 1 0 0 1 1 2 1 2 1 1 1 1 2 3 2 2 2 2 2 2 2 2 2 2 3 2 2 2 2 1 1 1 1 2 3 4 3 3 3 2 2 1
2 2 1 1 1 1 1 1 1 1 1 1 1 1 2 2 1 1 2 2 2 2 2 2 2 2 1 1 1 1 1 1 1 1 1 2 3 3 3 2 2 3 2
3 2 2 2 1 1 1 1 1 1 0 1 1 1 1 1 1 1 1 2 2 2 2 2 2 2 2 2 2 1 1 1 1 1 1 1 2 3 3 2 2 2 2
3 2 3 2 2 1 1 1 1 0 0 0 0 0 1 1 1 1 1 1 2 2 1 1 2 2 2 2 2 2 1 1 1 1 1 1 1 2 2 3 3 2 2
4 4 3 3 3 2 1 1 1 1 0 0 1 0 0 1 1 1 0 1 1 2 2 2 2 1 1 2 2 1 1 1 1 1 0 1 1 1 1 3 4 4 3
3 4 3 3 3 2 1 1 1 0 0 0 1 1 0 0 0 0 0 1 1 1 2 2 2 2 1 1 2 2 2 2 1 1 1 0 1 1 1 2 1 3 4
3 3 4 3 3 3 1 1 1 1 1 1 1 1 1 0 0 0 0 1 1 1 1 2 1 2 2 2 1 2 1 1 1 1 0 0 1 1 1 1 1 1 2
4 4 4 4 4 4 3 2 2 2 2 2 1 1 1 1 1 0 0 0 0 1 1 1 1 1 1 2 1 1 1 2 1 1 1 1 0 1 1 2 1 1 2
5 5 5 5 5 4 4 2 1 1 1 1 1 1 1 1 1 1 1 1 0 0 1 1 1 1 0 1 1 0 0 2 2 1 1 1 0 0 1 1 2 2 2
6 4 4 5 5 4 4 4 4 3 3 3 2 2 2 2 2 2 2 1 1 1 1 1 0 1 1 1 1 1 1 1 1 2 1 1 1 1 1 2 2 2 2
4 3 4 4 5 4 4 5 5 4 3 2 2 2 2 2 2 2 2 2 2 1 1 1 1 1 1 2 1 1 1 1 1 2 3 2 2 1 2 2 2 2 2
3 3 3 3 5 5 5 5 5 5 4 3 3 3 3 2 2 3 3 2 2 2 2 2 2 2 2 2 2 1 1 1 1 2 2 3 3 2 2 2 2 2 2
Wind_Direction
315 316 326 11 33 43 47 50 53 53 54 57 58 60 62 62 63 63 64 67 71 74 75 77 76 76 78 80 79 78 77 75 74 72 70 71 76 82 83 81 79 79 87
294 311 335 20 44 48 52 53 55 56 54 56 58 59 60 61 61 62 63 65 67 73 76 76 76 77 79 79 78 78 77 75 73 69 65 65 71 80 84 84 84 86 90
346 332 336 39 51 53 57 57 59 60 58 56 57 59 60 60 59 61 62 63 65 68 72 73 75 75 78 78 77 76 75 74 72 68 64 53 67 79 83 85 87 90 90
6 2 348 56 60 59 59 60 61 61 60 58 56 57 58 59 60 62 63 60 61 65 68 70 73 75 76 78 76 74 73 73 70 64 52 43 54 81 82 83 86 90 91
23 12 6 63 63 62 60 59 61 61 60 58 56 56 56 58 60 60 63 61 61 64 66 67 69 72 74 76 76 73 72 73 66 55 45 43 47 78 81 81 82 88 92
31 17 14 64 63 61 61 60 58 59 61 61 57 55 55 56 58 59 59 61 62 61 63 64 65 70 72 72 74 73 72 71 64 48 44 43 45 75 80 79 80 85 92
35 24 21 57 64 61 58 57 58 58 58 60 60 58 57 55 56 57 57 59 62 61 60 61 62 66 73 72 73 72 71 70 59 48 42 40 53 76 79 79 79 84 88
46 35 33 45 58 58 57 54 53 56 55 54 57 59 58 56 57 56 56 59 61 61 60 60 62 61 70 70 70 73 71 66 60 45 37 41 59 76 81 81 80 84 88
48 43 35 32 45 50 51 52 52 51 52 53 53 53 55 54 53 55 53 56 57 55 58 57 61 60 64 67 68 70 67 59 52 36 34 34 57 73 81 82 82 82 88
48 43 37 35 35 36 43 47 50 51 50 50 50 47 47 48 48 49 46 50 52 53 53 55 58 61 62 61 65 64 62 55 42 32 24 34 55 65 75 82 85 85 88
42 37 36 38 39 32 40 46 46 48 46 47 44 44 44 34 37 40 38 44 48 50 50 51 55 57 60 57 59 59 55 40 34 28 16 35 50 57 65 73 84 90 93
21 28 37 41 39 38 39 40 39 47 42 42 41 37 36 30 33 40 37 40 42 45 45 47 52 52 50 41 47 54 40 36 39 17 12 31 45 54 61 65 69 87 100
333 19 32 54 47 50 42 37 36 43 42 39 42 36 36 38 35 34 33 31 29 35 34 36 37 32 35 35 31 36 34 35 30 7 356 17 33 41 53 62 62 68 86
15 5 15 49 60 63 60 49 39 45 48 40 33 38 44 42 35 23 25 19 24 20 23 29 27 25 36 38 38 40 34 30 19 2 349 9 22 29 40 51 59 61 69
240 276 316 75 91 83 78 58 51 37 52 49 46 40 46 54 45 26 17 19 21 18 19 20 25 20 27 33 28 34 24 22 11 357 342 359 11 16 27 36 36 35 45
230 251 226 177 145 119 104 85 67 35 47 62 58 47 51 56 52 36 27 16 15 10 6 4 11 6 359 10 357 357 0 358 354 351 343 341 354 1 4 11 15 13 16
221 242 226 194 158 145 135 128 95 47 63 85 52 68 61 55 60 38 42 23 359 349 1 7 8 8 10 7 337 327 350 332 325 324 337 347 336 349 352 344 343 340 350
216 228 230 204 170 175 165 150 127 97 51 151 111 107 83 61 64 65 43 14 350 350 3 11 13 8 2 354 326 311 318 307 280 288 350 359 1 355 347 350 351 349 344
220 219 226 204 185 188 182 152 143 158 139 216 146 125 122 83 66 82 44 358 9 6 3 5 10 346 340 337 309 297 296 288 279 310 324 356 11 15 9 353 355 353 346
227 220 221 214 198 181 169 145 149 148 189 227 177 156 148 163 128 80 44 8 24 21 5 2 353 344 315 306 308 305 285 276 274 243 246 335 358 4 11 353 340 334 334
228 223 211 211 202 177 172 185 190 218 232 255 202 170 170 181 176 102 21 351 24 19 348 348 345 341 343 338 354 330 311 271 247 227 232 244 326 337 346 333 336 327 313
221 223 218 212 209 195 193 195 197 199 204 229 213 179 175 182 206 187 138 274 322 10 350 348 3 351 337 2 12 355 317 315 298 277 237 213 249 342 332 332 322 306 307
227 221 225 219 219 203 189 180 176 169 204 234 227 202 201 200 213 213 207 216 252 176 251 294 339 326 288 312 9 93 195 255 295 276 236 214 242 290 306 303 303 315 304
234 229 227 225 221 203 182 183 193 200 215 227 232 221 230 209 215 222 212 201 206 215 237 257 312 284 226 248 288 310 252 237 249 291 281 235 254 265 276 303 300 295 295
233 229 230 232 215 198 189 191 194 208 217 213 227 218 223 224 218 222 213 205 204 218 231 253 280 268 242 233 238 277 279 290 243 245 263 280 292 255 260 272 268 270 276
238 229 228 235 217 199 195 198 195 200 209 208 226 225 217 219 224 225 219 211 211 217 226 233 244 244 244 249 244 232 222 220 245 267 261 277 284 283 286 267 258 257 267